TIME,�����g�[�mL�n,�t���O,�����g�[�mMJ�n,�t���O
2003/2/1 0:00,0.018664718,0,2.739980529,0
2003/2/1 0:15,0.018662573,0,2.739665643,0
2003/2/1 0:30,0.018582135,0,2.727857418,0
2003/2/1 0:45,0.018431985,0,2.705815398,0
2003/2/1 1:00,0.017397023,0,2.553882903,0
2003/2/1 1:15,0.01503216,0,2.206721088,0
2003/2/1 1:30,0.015990975,0,2.34747513,0
2003/2/1 1:45,0,0,0,0
2003/2/1 2:00,0,0,0,0
2003/2/1 2:15,0,0,0,0
2003/2/1 2:30,0,0,0,0
2003/2/1 2:45,0,0,0,0
2003/2/1 3:00,0,0,0,0
2003/2/1 3:15,0,0,0,0
2003/2/1 3:30,0,0,0,0
2003/2/1 3:45,0,0,0,0
2003/2/1 4:00,0,0,0,0
2003/2/1 4:15,0,0,0,0
2003/2/1 4:30,0,0,0,0
2003/2/1 4:45,0,0,0,0
2003/2/1 5:00,0,0,0,0
2003/2/1 5:15,0,0,0,0
2003/2/1 5:30,0,0,0,0
2003/2/1 5:45,0,0,0,0
2003/2/1 6:00,0,0,0,0
2003/2/1 6:15,0,0,0,0
2003/2/1 6:30,0,0,0,0
2003/2/1 6:45,0,0,0,0
2003/2/1 7:00,0,0,0,0
2003/2/1 7:15,0,0,0,0
2003/2/1 7:30,0,0,0,0
2003/2/1 7:45,0.00160875,0,0.2361645,0
2003/2/1 8:00,0.018671153,0,2.740925187,0
2003/2/1 8:15,0.01866579,0,2.740137972,0
2003/2/1 8:30,0.018663645,0,2.739823086,0
2003/2/1 8:45,0.018662573,0,2.739665643,0
2003/2/1 9:00,0.0186615,0,2.7395082,0
2003/2/1 9:15,0,0,0,0
2003/2/1 9:30,0,0,0,0
2003/2/1 9:45,0,0,0,0
2003/2/1 10:00,0,0,0,0
2003/2/1 10:15,0,0,0,0
2003/2/1 10:30,0,0,0,0
2003/2/1 10:45,0,0,0,0
2003/2/1 11:00,0,0,0,0
2003/2/1 11:15,0,0,0,0
2003/2/1 11:30,0,0,0,0
2003/2/1 11:45,0,0,0,0
2003/2/1 12:00,0,0,0,0
2003/2/1 12:15,0,0,0,0
2003/2/1 12:30,0,0,0,0
2003/2/1 12:45,0,0,0,0
2003/2/1 13:00,0,0,0,0
2003/2/1 13:15,0,0,0,0
2003/2/1 13:30,0.016841468,0,2.472327429,0
2003/2/1 13:45,0.018664718,0,2.739980529,0
2003/2/1 14:00,0.018662573,0,2.739665643,0
2003/2/1 14:15,0.0186615,0,2.7395082,0
2003/2/1 14:30,0.018568193,0,2.725810659,0
2003/2/1 14:45,0.018660427,0,2.739350757,0
2003/2/1 15:00,0.017036663,0,2.500982055,0
2003/2/1 15:15,0.016115385,0,2.365738518,0
2003/2/1 15:30,0.01555983,0,2.284183044,0
2003/2/1 15:45,0.014048678,0,2.062345857,0
2003/2/1 16:00,0.012558975,0,1.84365753,0
2003/2/1 16:15,0.007442078,0,1.092496977,0
2003/2/1 16:30,0,0,0,0
2003/2/1 16:45,0.006809303,0,0.999605607,0
2003/2/1 17:00,0.016062833,0,2.358023811,0
2003/2/1 17:15,0.012503205,0,1.835470494,0
2003/2/1 17:30,0.012886088,0,1.891677645,0
2003/2/1 17:45,0.013737652,0,2.016687387,0
2003/2/1 18:00,0.01214928,0,1.783514304,0
2003/2/1 18:15,0.008731222,0,1.281743463,0
2003/2/1 18:30,0.00754611,0,1.107768948,0
2003/2/1 18:45,0.00944658,0,1.386757944,0
2003/2/1 19:00,0.01140282,0,1.673933976,0
2003/2/1 19:15,0.010799003,0,1.585293567,0
2003/2/1 19:30,0.010147995,0,1.489725666,0
2003/2/1 19:45,0.003120975,0,0.45815913,0
2003/2/1 20:00,0,0,0,0
2003/2/1 20:15,0,0,0,0
2003/2/1 20:30,0,0,0,0
2003/2/1 20:45,0,0,0,0
2003/2/1 21:00,0,0,0,0
2003/2/1 21:15,0,0,0,0
2003/2/1 21:30,0,0,0,0
2003/2/1 21:45,0,0,0,0
2003/2/1 22:00,0,0,0,0
2003/2/1 22:15,0,0,0,0
2003/2/1 22:30,0,0,0,0
2003/2/1 22:45,0,0,0,0
2003/2/1 23:00,0,0,0,0
2003/2/1 23:15,0,0,0,0
2003/2/1 23:30,0,0,0,0
2003/2/1 23:45,0,0,0,0
2003/2/2 0:00,0,0,0,0
2003/2/2 0:15,0,0,0,0
2003/2/2 0:30,0,0,0,0
2003/2/2 0:45,0,0,0,0
2003/2/2 1:00,0,0,0,0
2003/2/2 1:15,0,0,0,0
2003/2/2 1:30,0,0,0,0
2003/2/2 1:45,0,0,0,0
2003/2/2 2:00,0,0,0,0
2003/2/2 2:15,0,0,0,0
2003/2/2 2:30,0,0,0,0
2003/2/2 2:45,0,0,0,0
2003/2/2 3:00,0,0,0,0
2003/2/2 3:15,0,0,0,0
2003/2/2 3:30,0,0,0,0
2003/2/2 3:45,0,0,0,0
2003/2/2 4:00,0,0,0,0
2003/2/2 4:15,0,0,0,0
2003/2/2 4:30,0,0,0,0
2003/2/2 4:45,0,0,0,0
2003/2/2 5:00,0,0,0,0
2003/2/2 5:15,0,0,0,0
2003/2/2 5:30,0,0,0,0
2003/2/2 5:45,0,0,0,0
2003/2/2 6:00,0,0,0,0
2003/2/2 6:15,0,0,0,0
2003/2/2 6:30,0,0,0,0
2003/2/2 6:45,0,0,0,0
2003/2/2 7:00,0,0,0,0
2003/2/2 7:15,0,0,0,0
2003/2/2 7:30,0,0,0,0
2003/2/2 7:45,0,0,0,0
2003/2/2 8:00,0,0,0,0
2003/2/2 8:15,0,0,0,0
2003/2/2 8:30,0.009102308,0,1.336218741,0
2003/2/2 8:45,0.018669008,0,2.740610301,0
2003/2/2 9:00,0.01866579,0,2.740137972,0
2003/2/2 9:15,0.018663645,0,2.739823086,0
2003/2/2 9:30,0.018663645,0,2.739823086,0
2003/2/2 9:45,0.018663645,0,2.739823086,0
2003/2/2 10:00,0.0186615,0,2.7395082,0
2003/2/2 10:15,0.018662573,0,2.739665643,0
2003/2/2 10:30,0.0186615,0,2.7395082,0
2003/2/2 10:45,0.018660427,0,2.739350757,0
2003/2/2 11:00,0.01861431,0,2.732580708,0
2003/2/2 11:15,0.012441,0,1.8263388,0
2003/2/2 11:30,0,0,0,0
2003/2/2 11:45,0,0,0,0
2003/2/2 12:00,0,0,0,0
2003/2/2 12:15,0,0,0,0
2003/2/2 12:30,0.004236375,0,0.62189985,0
2003/2/2 12:45,0.018669008,0,2.740610301,0
2003/2/2 13:00,0.023089853,0,3.389590347,0
2003/2/2 13:15,0.018625035,0,2.734155138,0
2003/2/2 13:30,0.016637693,0,2.442413259,0
2003/2/2 13:45,0.01313169,0,1.927732092,0
2003/2/2 14:00,0.012439928,0,1.826181357,0
2003/2/2 14:15,0.018042667,0,2.648663589,0
2003/2/2 14:30,0.00588588,0,0.864047184,0
2003/2/2 14:45,0.00193479,0,0.284027172,0
2003/2/2 15:00,0,0,0,0
2003/2/2 15:15,0.011425343,0,1.677240279,0
2003/2/2 15:30,0.018570337,0,2.726125545,0
2003/2/2 15:45,0.017965447,0,2.637327693,0
2003/2/2 16:00,0.014762963,0,2.167202895,0
2003/2/2 16:15,0.014286773,0,2.097298203,0
2003/2/2 16:30,0.012927915,0,1.897817922,0
2003/2/2 16:45,0.009731865,0,1.428637782,0
2003/2/2 17:00,0.01066065,0,1.56498342,0
2003/2/2 17:15,0,0,0,0
2003/2/2 17:30,0,0,0,0
2003/2/2 17:45,0,0,0,0
2003/2/2 18:00,0,0,0,0
2003/2/2 18:15,0,0,0,0
2003/2/2 18:30,0,0,0,0
2003/2/2 18:45,0,0,0,0
2003/2/2 19:00,0,0,0,0
2003/2/2 19:15,0,0,0,0
2003/2/2 19:30,0.001764263,0,0.258993735,0
2003/2/2 19:45,0.01867008,0,2.740767744,0
2003/2/2 20:00,0.018664718,0,2.739980529,0
2003/2/2 20:15,0.01860573,0,2.731321164,0
2003/2/2 20:30,0.018663645,0,2.739823086,0
2003/2/2 20:45,0.018067335,0,2.652284778,0
2003/2/2 21:00,0.004441223,0,0.651971463,0
2003/2/2 21:15,0,0,0,0
2003/2/2 21:30,0,0,0,0
2003/2/2 21:45,0,0,0,0
2003/2/2 22:00,0,0,0,0
2003/2/2 22:15,0,0,0,0
2003/2/2 22:30,0,0,0,0
2003/2/2 22:45,0,0,0,0
2003/2/2 23:00,0,0,0,0
2003/2/2 23:15,0,0,0,0
2003/2/2 23:30,0,0,0,0
2003/2/2 23:45,0,0,0,0
2003/2/3 0:00,0,0,0,0
2003/2/3 0:15,0,0,0,0
2003/2/3 0:30,0,0,0,0
2003/2/3 0:45,0,0,0,0
2003/2/3 1:00,0,0,0,0
2003/2/3 1:15,0,0,0,0
2003/2/3 1:30,0,0,0,0
2003/2/3 1:45,0,0,0,0
2003/2/3 2:00,0,0,0,0
2003/2/3 2:15,0,0,0,0
2003/2/3 2:30,0,0,0,0
2003/2/3 2:45,0,0,0,0
2003/2/3 3:00,0,0,0,0
2003/2/3 3:15,0,0,0,0
2003/2/3 3:30,0,0,0,0
2003/2/3 3:45,0,0,0,0
2003/2/3 4:00,0,0,0,0
2003/2/3 4:15,0,0,0,0
2003/2/3 4:30,0,0,0,0
2003/2/3 4:45,0,0,0,0
2003/2/3 5:00,0,0,0,0
2003/2/3 5:15,0,0,0,0
2003/2/3 5:30,0,0,0,0
2003/2/3 5:45,0,0,0,0
2003/2/3 6:00,0.009224573,0,1.354167243,0
2003/2/3 6:15,0.006222645,0,0.913484286,0
2003/2/3 6:30,0,0,0,0
2003/2/3 6:45,0,0,0,0
2003/2/3 7:00,0,0,0,0
2003/2/3 7:15,0,0,0,0
2003/2/3 7:30,0.015052538,0,2.209712505,0
2003/2/3 7:45,0.01866579,0,2.740137972,0
2003/2/3 8:00,0.018664718,0,2.739980529,0
2003/2/3 8:15,0.018663645,0,2.739823086,0
2003/2/3 8:30,0.006221572,0,0.913326843,0
2003/2/3 8:45,0,0,0,0
2003/2/3 9:00,0,0,0,0
2003/2/3 9:15,0,0,0,0
2003/2/3 9:30,0,0,0,0
2003/2/3 9:45,0,0,0,0
2003/2/3 10:00,0,0,0,0
2003/2/3 10:15,0,0,0,0
2003/2/3 10:30,0,0,0,0
2003/2/3 10:45,0,0,0,0
2003/2/3 11:00,0,0,0,0
2003/2/3 11:15,0,0,0,0
2003/2/3 11:30,0,0,0,0
2003/2/3 11:45,0,0,0,0
2003/2/3 12:00,0,0,0,0
2003/2/3 12:15,0,0,0,0
2003/2/3 12:30,0,0,0,0
2003/2/3 12:45,0,0,0,0
2003/2/3 13:00,0,0,0,0
2003/2/3 13:15,0,0,0,0
2003/2/3 13:30,0,0,0,0
2003/2/3 13:45,0,0,0,0
2003/2/3 14:00,0,0,0,0
2003/2/3 14:15,0,0,0,0
2003/2/3 14:30,0,0,0,0
2003/2/3 14:45,0,0,0,0
2003/2/3 15:00,0,0,0,0
2003/2/3 15:15,0,0,0,0
2003/2/3 15:30,0,0,0,0
2003/2/3 15:45,0.011641988,0,1.709043765,0
2003/2/3 16:00,0.01866579,0,2.740137972,0
2003/2/3 16:15,0,0,0,0
2003/2/3 16:30,0,0,0,0
2003/2/3 16:45,0,0,0,0
2003/2/3 17:00,0.006264473,0,0.919624563,0
2003/2/3 17:15,0.018666862,0,2.740295415,0
2003/2/3 17:30,0.018647557,0,2.737461441,0
2003/2/3 17:45,0.018186383,0,2.669760951,0
2003/2/3 18:00,0.017116027,0,2.512632837,0
2003/2/3 18:15,0.015176948,0,2.227975893,0
2003/2/3 18:30,0.01573572,0,2.310003696,0
2003/2/3 18:45,0.01592448,0,2.337713664,0
2003/2/3 19:00,0.013128473,0,1.927259763,0
2003/2/3 19:15,0.012328387,0,1.809807285,0
2003/2/3 19:30,0.011528303,0,1.692354807,0
2003/2/3 19:45,0.011543317,0,1.694559009,0
2003/2/3 20:00,0.00291291,0,0.427615188,0
2003/2/3 20:15,0,0,0,0
2003/2/3 20:30,0,0,0,0
2003/2/3 20:45,0,0,0,0
2003/2/3 21:00,0,0,0,0
2003/2/3 21:15,0,0,0,0
2003/2/3 21:30,0,0,0,0
2003/2/3 21:45,0,0,0,0
2003/2/3 22:00,0,0,0,0
2003/2/3 22:15,0,0,0,0
2003/2/3 22:30,0,0,0,0
2003/2/3 22:45,0,0,0,0
2003/2/3 23:00,0,0,0,0
2003/2/3 23:15,0,0,0,0
2003/2/3 23:30,0,0,0,0
2003/2/3 23:45,0,0,0,0
2003/2/4 0:00,0,0,0,0
2003/2/4 0:15,0,0,0,0
2003/2/4 0:30,0,0,0,0
2003/2/4 0:45,0,0,0,0
2003/2/4 1:00,0,0,0,0
2003/2/4 1:15,0,0,0,0
2003/2/4 1:30,0,0,0,0
2003/2/4 1:45,0,0,0,0
2003/2/4 2:00,0,0,0,0
2003/2/4 2:15,0,0,0,0
2003/2/4 2:30,0,0,0,0
2003/2/4 2:45,0,0,0,0
2003/2/4 3:00,0,0,0,0
2003/2/4 3:15,0,0,0,0
2003/2/4 3:30,0,0,0,0
2003/2/4 3:45,0,0,0,0
2003/2/4 4:00,0,0,0,0
2003/2/4 4:15,0,0,0,0
2003/2/4 4:30,0,0,0,0
2003/2/4 4:45,0,0,0,0
2003/2/4 5:00,0,0,0,0
2003/2/4 5:15,0,0,0,0
2003/2/4 5:30,0,0,0,0
2003/2/4 5:45,0.000461175,0,0.06770049,0
2003/2/4 6:00,0.018667935,0,2.740452858,0
2003/2/4 6:15,0.018666862,0,2.740295415,0
2003/2/4 6:30,0.01866579,0,2.740137972,0
2003/2/4 6:45,0.018664718,0,2.739980529,0
2003/2/4 7:00,0.018663645,0,2.739823086,0
2003/2/4 7:15,0.018664718,0,2.739980529,0
2003/2/4 7:30,0.018662573,0,2.739665643,0
2003/2/4 7:45,0.018662573,0,2.739665643,0
2003/2/4 8:00,0.01814241,0,2.663305788,0
2003/2/4 8:15,0.01788501,0,2.625519468,0
2003/2/4 8:30,0.01749462,0,2.568210216,0
2003/2/4 8:45,0.006221572,0,0.913326843,0
2003/2/4 9:00,0,0,0,0
2003/2/4 9:15,0,0,0,0
2003/2/4 9:30,0,0,0,0
2003/2/4 9:45,0,0,0,0
2003/2/4 10:00,0,0,0,0
2003/2/4 10:15,0,0,0,0
2003/2/4 10:30,0,0,0,0
2003/2/4 10:45,0,0,0,0
2003/2/4 11:00,0,0,0,0
2003/2/4 11:15,0,0,0,0
2003/2/4 11:30,0,0,0,0
2003/2/4 11:45,0,0,0,0
2003/2/4 12:00,0,0,0,0
2003/2/4 12:15,0,0,0,0
2003/2/4 12:30,0,0,0,0
2003/2/4 12:45,0,0,0,0
2003/2/4 13:00,0,0,0,0
2003/2/4 13:15,0,0,0,0
2003/2/4 13:30,0,0,0,0
2003/2/4 13:45,0,0,0,0
2003/2/4 14:00,0,0,0,0
2003/2/4 14:15,0,0,0,0
2003/2/4 14:30,0,0,0,0
2003/2/4 14:45,0,0,0,0
2003/2/4 15:00,0,0,0,0
2003/2/4 15:15,0,0,0,0
2003/2/4 15:30,0.005157653,0,0.757143387,0
2003/2/4 15:45,0.012446363,0,1.827126015,0
2003/2/4 16:00,0,0,0,0
2003/2/4 16:15,0,0,0,0
2003/2/4 16:30,0,0,0,0
2003/2/4 16:45,0,0,0,0
2003/2/4 17:00,0,0,0,0
2003/2/4 17:15,0,0,0,0
2003/2/4 17:30,0.009607455,0,1.410374394,0
2003/2/4 17:45,0.018046958,0,2.649293361,0
2003/2/4 18:00,0.016165793,0,2.373138339,0
2003/2/4 18:15,0.013246448,0,1.944578493,0
2003/2/4 18:30,0.01010295,0,1.48311306,0
2003/2/4 18:45,0,0,0,0
2003/2/4 19:00,0,0,0,0
2003/2/4 19:15,0,0,0,0
2003/2/4 19:30,0.010125473,0,1.486419363,0
2003/2/4 19:45,0.013301145,0,1.952608086,0
2003/2/4 20:00,0.010580213,0,1.553175195,0
2003/2/4 20:15,0.016354553,0,2.400848307,0
2003/2/4 20:30,0.014433705,0,2.118867894,0
2003/2/4 20:45,0.014975318,0,2.198376609,0
2003/2/4 21:00,0.005477258,0,0.804061401,0
2003/2/4 21:15,0,0,0,0
2003/2/4 21:30,0,0,0,0
2003/2/4 21:45,0,0,0,0
2003/2/4 22:00,0,0,0,0
2003/2/4 22:15,0,0,0,0
2003/2/4 22:30,0,0,0,0
2003/2/4 22:45,0,0,0,0
2003/2/4 23:00,0,0,0,0
2003/2/4 23:15,0,0,0,0
2003/2/4 23:30,0,0,0,0
2003/2/4 23:45,0,0,0,0
2003/2/5 0:00,0,0,0,0
2003/2/5 0:15,0,0,0,0
2003/2/5 0:30,0,0,0,0
2003/2/5 0:45,0,0,0,0
2003/2/5 1:00,0,0,0,0
2003/2/5 1:15,0,0,0,0
2003/2/5 1:30,0,0,0,0
2003/2/5 1:45,0,0,0,0
2003/2/5 2:00,0,0,0,0
2003/2/5 2:15,0,0,0,0
2003/2/5 2:30,0,0,0,0
2003/2/5 2:45,0,0,0,0
2003/2/5 3:00,0,0,0,0
2003/2/5 3:15,0,0,0,0
2003/2/5 3:30,0,0,0,0
2003/2/5 3:45,0,0,0,0
2003/2/5 4:00,0,0,0,0
2003/2/5 4:15,0,0,0,0
2003/2/5 4:30,0,0,0,0
2003/2/5 4:45,0,0,0,0
2003/2/5 5:00,0,0,0,0
2003/2/5 5:15,0,0,0,0
2003/2/5 5:30,0.00426855,0,0.62662314,0
2003/2/5 5:45,0.018669008,0,2.740610301,0
2003/2/5 6:00,0.01866579,0,2.740137972,0
2003/2/5 6:15,0.018663645,0,2.739823086,0
2003/2/5 6:30,0.018662573,0,2.739665643,0
2003/2/5 6:45,0.018662573,0,2.739665643,0
2003/2/5 7:00,0.018564975,0,2.72533833,0
2003/2/5 7:15,0.01653366,0,2.427141288,0
2003/2/5 7:30,0.016505775,0,2.42304777,0
2003/2/5 7:45,0.01494636,0,2.194125648,0
2003/2/5 8:00,0.015013928,0,2.204044557,0
2003/2/5 8:15,0.012568628,0,1.845074517,0
2003/2/5 8:30,0.00539682,0,0.792253176,0
2003/2/5 8:45,0,0,0,0
2003/2/5 9:00,0,0,0,0
2003/2/5 9:15,0,0,0,0
2003/2/5 9:30,0,0,0,0
2003/2/5 9:45,0,0,0,0
2003/2/5 10:00,0,0,0,0
2003/2/5 10:15,0,0,0,0
2003/2/5 10:30,0,0,0,0
2003/2/5 10:45,0,0,0,0
2003/2/5 11:00,0,0,0,0
2003/2/5 11:15,0,0,0,0
2003/2/5 11:30,0,0,0,0
2003/2/5 11:45,0,0,0,0
2003/2/5 12:00,0.004962458,0,0.728488761,0
2003/2/5 12:15,0.018667935,0,2.740452858,0
2003/2/5 12:30,0.012442073,0,1.826496243,0
2003/2/5 12:45,0,0,0,0
2003/2/5 13:00,0.009042248,0,1.327401933,0
2003/2/5 13:15,0.016024223,0,2.352355863,0
2003/2/5 13:30,0.013817018,0,2.028338169,0
2003/2/5 13:45,0.013516718,0,1.984254129,0
2003/2/5 14:00,0.014861633,0,2.181687651,0
2003/2/5 14:15,0.012701617,0,1.864597449,0
2003/2/5 14:30,0,0,0,0
2003/2/5 14:45,0,0,0,0
2003/2/5 15:00,0,0,0,0
2003/2/5 15:15,0,0,0,0
2003/2/5 15:30,0,0,0,0
2003/2/5 15:45,0,0,0,0
2003/2/5 16:00,0,0,0,0
2003/2/5 16:15,0,0,0,0
2003/2/5 16:30,0,0,0,0
2003/2/5 16:45,0.00312312,0,0.458474016,0
2003/2/5 17:00,0.01846845,0,2.71116846,0
2003/2/5 17:15,0.018338677,0,2.692117857,0
2003/2/5 17:30,0.01766622,0,2.593401096,0
2003/2/5 17:45,0.016024223,0,2.352355863,0
2003/2/5 18:00,0.01849848,0,2.715576864,0
2003/2/5 18:15,0.01796223,0,2.636855364,0
2003/2/5 18:30,0.016153995,0,2.371406466,0
2003/2/5 18:45,0.01320462,0,1.938438216,0
2003/2/5 19:00,0.013686172,0,2.009130123,0
2003/2/5 19:15,0.014619247,0,2.146105533,0
2003/2/5 19:30,0.011378153,0,1.670312787,0
2003/2/5 19:45,0.003555338,0,0.521923545,0
2003/2/5 20:00,0,0,0,0
2003/2/5 20:15,0,0,0,0
2003/2/5 20:30,0,0,0,0
2003/2/5 20:45,0.014990333,0,2.200580811,0
2003/2/5 21:00,0,0,0,0
2003/2/5 21:15,0,0,0,0
2003/2/5 21:30,0,0,0,0
2003/2/5 21:45,0,0,0,0
2003/2/5 22:00,0,0,0,0
2003/2/5 22:15,0,0,0,0
2003/2/5 22:30,0,0,0,0
2003/2/5 22:45,0,0,0,0
2003/2/5 23:00,0,0,0,0
2003/2/5 23:15,0,0,0,0
2003/2/5 23:30,0,0,0,0
2003/2/5 23:45,0,0,0,0
2003/2/6 0:00,0,0,0,0
2003/2/6 0:15,0,0,0,0
2003/2/6 0:30,0,0,0,0
2003/2/6 0:45,0,0,0,0
2003/2/6 1:00,0,0,0,0
2003/2/6 1:15,0,0,0,0
2003/2/6 1:30,0,0,0,0
2003/2/6 1:45,0,0,0,0
2003/2/6 2:00,0,0,0,0
2003/2/6 2:15,0,0,0,0
2003/2/6 2:30,0,0,0,0
2003/2/6 2:45,0,0,0,0
2003/2/6 3:00,0,0,0,0
2003/2/6 3:15,0,0,0,0
2003/2/6 3:30,0,0,0,0
2003/2/6 3:45,0,0,0,0
2003/2/6 4:00,0,0,0,0
2003/2/6 4:15,0,0,0,0
2003/2/6 4:30,0,0,0,0
2003/2/6 4:45,0,0,0,0
2003/2/6 5:00,0,0,0,0
2003/2/6 5:15,0,0,0,0
2003/2/6 5:30,0.006882233,0,1.010311731,0
2003/2/6 5:45,0.018669008,0,2.740610301,0
2003/2/6 6:00,0.01866579,0,2.740137972,0
2003/2/6 6:15,0.018663645,0,2.739823086,0
2003/2/6 6:30,0.018663645,0,2.739823086,0
2003/2/6 6:45,0.018663645,0,2.739823086,0
2003/2/6 7:00,0.018662573,0,2.739665643,0
2003/2/6 7:15,0.018662573,0,2.739665643,0
2003/2/6 7:30,0.0186615,0,2.7395082,0
2003/2/6 7:45,0.0186615,0,2.7395082,0
2003/2/6 8:00,0.0186615,0,2.7395082,0
2003/2/6 8:15,0.0186615,0,2.7395082,0
2003/2/6 8:30,0,0,0,0
2003/2/6 8:45,0,0,0,0
2003/2/6 9:00,0,0,0,0
2003/2/6 9:15,0,0,0,0
2003/2/6 9:30,0,0,0,0
2003/2/6 9:45,0,0,0,0
2003/2/6 10:00,0,0,0,0
2003/2/6 10:15,0,0,0,0
2003/2/6 10:30,0,0,0,0
2003/2/6 10:45,0,0,0,0
2003/2/6 11:00,0,0,0,0
2003/2/6 11:15,0,0,0,0
2003/2/6 11:30,0,0,0,0
2003/2/6 11:45,0,0,0,0
2003/2/6 12:00,0,0,0,0
2003/2/6 12:15,0,0,0,0
2003/2/6 12:30,0,0,0,0
2003/2/6 12:45,0,0,0,0
2003/2/6 13:00,0,0,0,0
2003/2/6 13:15,0,0,0,0
2003/2/6 13:30,0,0,0,0
2003/2/6 13:45,0,0,0,0
2003/2/6 14:00,0,0,0,0
2003/2/6 14:15,0.012640485,0,1.855623198,0
2003/2/6 14:30,0.01866579,0,2.740137972,0
2003/2/6 14:45,0.018663645,0,2.739823086,0
2003/2/6 15:00,0.0186615,0,2.7395082,0
2003/2/6 15:15,0.01073787,0,1.576319316,0
2003/2/6 15:30,0.003868508,0,0.567896901,0
2003/2/6 15:45,0,0,0,0
2003/2/6 16:00,0,0,0,0
2003/2/6 16:15,0,0,0,0
2003/2/6 16:30,0,0,0,0
2003/2/6 16:45,0,0,0,0
2003/2/6 17:00,0,0,0,0
2003/2/6 17:15,0,0,0,0
2003/2/6 17:30,0.007261898,0,1.066046553,0
2003/2/6 17:45,0.018666862,0,2.740295415,0
2003/2/6 18:00,0.018663645,0,2.739823086,0
2003/2/6 18:15,0.018663645,0,2.739823086,0
2003/2/6 18:30,0.01842984,0,2.705500512,0
2003/2/6 18:45,0.01600599,0,2.349679332,0
2003/2/6 19:00,0.016505775,0,2.42304777,0
2003/2/6 19:15,0.01842555,0,2.70487074,0
2003/2/6 19:30,0.018478103,0,2.712585447,0
2003/2/6 19:45,0.01649076,0,2.420843568,0
2003/2/6 20:00,0.017506418,0,2.569942089,0
2003/2/6 20:15,0.01709994,0,2.510271192,0
2003/2/6 20:30,0.005123333,0,0.752105211,0
2003/2/6 20:45,0,0,0,0
2003/2/6 21:00,0,0,0,0
2003/2/6 21:15,0,0,0,0
2003/2/6 21:30,0,0,0,0
2003/2/6 21:45,0,0,0,0
2003/2/6 22:00,0,0,0,0
2003/2/6 22:15,0,0,0,0
2003/2/6 22:30,0,0,0,0
2003/2/6 22:45,0,0,0,0
2003/2/6 23:00,0,0,0,0
2003/2/6 23:15,0,0,0,0
2003/2/6 23:30,0,0,0,0
2003/2/6 23:45,0,0,0,0
2003/2/7 0:00,0.009207412,0,1.351648155,0
2003/2/7 0:15,0.018667935,0,2.740452858,0
2003/2/7 0:30,0.018664718,0,2.739980529,0
2003/2/7 0:45,0.018663645,0,2.739823086,0
2003/2/7 1:00,0.012442073,0,1.826496243,0
2003/2/7 1:15,0,0,0,0
2003/2/7 1:30,0,0,0,0
2003/2/7 1:45,0,0,0,0
2003/2/7 2:00,0,0,0,0
2003/2/7 2:15,0,0,0,0
2003/2/7 2:30,0,0,0,0
2003/2/7 2:45,0,0,0,0
2003/2/7 3:00,0,0,0,0
2003/2/7 3:15,0,0,0,0
2003/2/7 3:30,0,0,0,0
2003/2/7 3:45,0,0,0,0
2003/2/7 4:00,0,0,0,0
2003/2/7 4:15,0,0,0,0
2003/2/7 4:30,0,0,0,0
2003/2/7 4:45,0,0,0,0
2003/2/7 5:00,0,0,0,0
2003/2/7 5:15,0,0,0,0
2003/2/7 5:30,0,0,0,0
2003/2/7 5:45,0.018153135,0,2.664880218,0
2003/2/7 6:00,0.018667935,0,2.740452858,0
2003/2/7 6:15,0.018664718,0,2.739980529,0
2003/2/7 6:30,0.018664718,0,2.739980529,0
2003/2/7 6:45,0.018663645,0,2.739823086,0
2003/2/7 7:00,0.018664718,0,2.739980529,0
2003/2/7 7:15,0.018663645,0,2.739823086,0
2003/2/7 7:30,0.018662573,0,2.739665643,0
2003/2/7 7:45,0.018662573,0,2.739665643,0
2003/2/7 8:00,0.018474885,0,2.712113118,0
2003/2/7 8:15,0.016873643,0,2.477050719,0
2003/2/7 8:30,0,0,0,0
2003/2/7 8:45,0,0,0,0
2003/2/7 9:00,0,0,0,0
2003/2/7 9:15,0,0,0,0
2003/2/7 9:30,0,0,0,0
2003/2/7 9:45,0,0,0,0
2003/2/7 10:00,0,0,0,0
2003/2/7 10:15,0,0,0,0
2003/2/7 10:30,0,0,0,0
2003/2/7 10:45,0,0,0,0
2003/2/7 11:00,0,0,0,0
2003/2/7 11:15,0,0,0,0
2003/2/7 11:30,0,0,0,0
2003/2/7 11:45,0,0,0,0
2003/2/7 12:00,0,0,0,0
2003/2/7 12:15,0,0,0,0
2003/2/7 12:30,0,0,0,0
2003/2/7 12:45,0,0,0,0
2003/2/7 13:00,0,0,0,0
2003/2/7 13:15,0,0,0,0
2003/2/7 13:30,0,0,0,0
2003/2/7 13:45,0,0,0,0
2003/2/7 14:00,0,0,0,0
2003/2/7 14:15,0,0,0,0
2003/2/7 14:30,0,0,0,0
2003/2/7 14:45,0,0,0,0
2003/2/7 15:00,0,0,0,0
2003/2/7 15:15,0,0,0,0
2003/2/7 15:30,0,0,0,0
2003/2/7 15:45,0,0,0,0
2003/2/7 16:00,0,0,0,0
2003/2/7 16:15,0,0,0,0
2003/2/7 16:30,0.007960095,0,1.168541946,0
2003/2/7 16:45,0.01866579,0,2.740137972,0
2003/2/7 17:00,0.0177177,0,2.60095836,0
2003/2/7 17:15,0.014956013,0,2.195542635,0
2003/2/7 17:30,0.017785267,0,2.610877269,0
2003/2/7 17:45,0.012358418,0,1.814215689,0
2003/2/7 18:00,0.008418053,0,1.235770107,0
2003/2/7 18:15,0.008542463,0,1.254033495,0
2003/2/7 18:30,0.008015865,0,1.176728982,0
2003/2/7 18:45,0.006617325,0,0.97142331,0
2003/2/7 19:00,0.007656577,0,1.123985577,0
2003/2/7 19:15,0.007312305,0,1.073446374,0
2003/2/7 19:30,0.002319818,0,0.340549209,0
2003/2/7 19:45,0,0,0,0
2003/2/7 20:00,0,0,0,0
2003/2/7 20:15,0,0,0,0
2003/2/7 20:30,0,0,0,0
2003/2/7 20:45,0,0,0,0
2003/2/7 21:00,0,0,0,0
2003/2/7 21:15,0,0,0,0
2003/2/7 21:30,0,0,0,0
2003/2/7 21:45,0,0,0,0
2003/2/7 22:00,0,0,0,0
2003/2/7 22:15,0,0,0,0
2003/2/7 22:30,0,0,0,0
2003/2/7 22:45,0,0,0,0
2003/2/7 23:00,0,0,0,0
2003/2/7 23:15,0,0,0,0
2003/2/7 23:30,0,0,0,0
2003/2/7 23:45,0,0,0,0
2003/2/8 0:00,0.01815957,0,2.665824876,0
2003/2/8 0:15,0.018664718,0,2.739980529,0
2003/2/8 0:30,0.018510278,0,2.717308737,0
2003/2/8 0:45,0.018357982,0,2.694951831,0
2003/2/8 1:00,0.016892948,0,2.479884693,0
2003/2/8 1:15,0.016317015,0,2.395337802,0
2003/2/8 1:30,0.013378365,0,1.963943982,0
2003/2/8 1:45,0.012727357,0,1.868376081,0
2003/2/8 2:00,0.003429855,0,0.503502714,0
2003/2/8 2:15,0,0,0,0
2003/2/8 2:30,0,0,0,0
2003/2/8 2:45,0,0,0,0
2003/2/8 3:00,0,0,0,0
2003/2/8 3:15,0,0,0,0
2003/2/8 3:30,0,0,0,0
2003/2/8 3:45,0,0,0,0
2003/2/8 4:00,0,0,0,0
2003/2/8 4:15,0,0,0,0
2003/2/8 4:30,0,0,0,0
2003/2/8 4:45,0,0,0,0
2003/2/8 5:00,0,0,0,0
2003/2/8 5:15,0,0,0,0
2003/2/8 5:30,0,0,0,0
2003/2/8 5:45,0,0,0,0
2003/2/8 6:00,0,0,0,0
2003/2/8 6:15,0,0,0,0
2003/2/8 6:30,0.007294073,0,1.070769843,0
2003/2/8 6:45,0.018669008,0,2.740610301,0
2003/2/8 7:00,0.018664718,0,2.739980529,0
2003/2/8 7:15,0.018664718,0,2.739980529,0
2003/2/8 7:30,0.018424478,0,2.704713297,0
2003/2/8 7:45,0.018420188,0,2.704083525,0
2003/2/8 8:00,0.017416328,0,2.556716877,0
2003/2/8 8:15,0,0,0,0
2003/2/8 8:30,0,0,0,0
2003/2/8 8:45,0,0,0,0
2003/2/8 9:00,0,0,0,0
2003/2/8 9:15,0,0,0,0
2003/2/8 9:30,0,0,0,0
2003/2/8 9:45,0,0,0,0
2003/2/8 10:00,0,0,0,0
2003/2/8 10:15,0,0,0,0
2003/2/8 10:30,0,0,0,0
2003/2/8 10:45,0,0,0,0
2003/2/8 11:00,0,0,0,0
2003/2/8 11:15,0,0,0,0
2003/2/8 11:30,0,0,0,0
2003/2/8 11:45,0,0,0,0
2003/2/8 12:00,0.009838042,0,1.444224639,0
2003/2/8 12:15,0.018666862,0,2.740295415,0
2003/2/8 12:30,0.018663645,0,2.739823086,0
2003/2/8 12:45,0,0,0,0
2003/2/8 13:00,0,0,0,0
2003/2/8 13:15,0,0,0,0
2003/2/8 13:30,0,0,0,0
2003/2/8 13:45,0,0,0,0
2003/2/8 14:00,0,0,0,0
2003/2/8 14:15,0,0,0,0
2003/2/8 14:30,0,0,0,0
2003/2/8 14:45,0,0,0,0
2003/2/8 15:00,0,0,0,0
2003/2/8 15:15,0,0,0,0
2003/2/8 15:30,0,0,0,0
2003/2/8 15:45,0,0,0,0
2003/2/8 16:00,0,0,0,0
2003/2/8 16:15,0.011654858,0,1.710933081,0
2003/2/8 16:30,0.01866579,0,2.740137972,0
2003/2/8 16:45,0.018403027,0,2.701564437,0
2003/2/8 17:00,0.017272613,0,2.535619515,0
2003/2/8 17:15,0.017757383,0,2.606783751,0
2003/2/8 17:30,0.015264893,0,2.240886219,0
2003/2/8 17:45,0.013146705,0,1.929936294,0
2003/2/8 18:00,0.013700115,0,2.011176882,0
2003/2/8 18:15,0.00856284,0,1.257024912,0
2003/2/8 18:30,0.0078507,0,1.15248276,0
2003/2/8 18:45,0.003576787,0,0.525072405,0
2003/2/8 19:00,0,0,0,0
2003/2/8 19:15,0,0,0,0
2003/2/8 19:30,0,0,0,0
2003/2/8 19:45,0,0,0,0
2003/2/8 20:00,0,0,0,0
2003/2/8 20:15,0,0,0,0
2003/2/8 20:30,0,0,0,0
2003/2/8 20:45,0,0,0,0
2003/2/8 21:00,0,0,0,0
2003/2/8 21:15,0,0,0,0
2003/2/8 21:30,0,0,0,0
2003/2/8 21:45,0,0,0,0
2003/2/8 22:00,0,0,0,0
2003/2/8 22:15,0,0,0,0
2003/2/8 22:30,0,0,0,0
2003/2/8 22:45,0,0,0,0
2003/2/8 23:00,0,0,0,0
2003/2/8 23:15,0,0,0,0
2003/2/8 23:30,0,0,0,0
2003/2/8 23:45,0,0,0,0
2003/2/9 0:00,0,0,0,0
2003/2/9 0:15,0,0,0,0
2003/2/9 0:30,0,0,0,0
2003/2/9 0:45,0,0,0,0
2003/2/9 1:00,0,0,0,0
2003/2/9 1:15,0,0,0,0
2003/2/9 1:30,0,0,0,0
2003/2/9 1:45,0,0,0,0
2003/2/9 2:00,0,0,0,0
2003/2/9 2:15,0,0,0,0
2003/2/9 2:30,0,0,0,0
2003/2/9 2:45,0,0,0,0
2003/2/9 3:00,0,0,0,0
2003/2/9 3:15,0,0,0,0
2003/2/9 3:30,0,0,0,0
2003/2/9 3:45,0,0,0,0
2003/2/9 4:00,0,0,0,0
2003/2/9 4:15,0,0,0,0
2003/2/9 4:30,0,0,0,0
2003/2/9 4:45,0,0,0,0
2003/2/9 5:00,0,0,0,0
2003/2/9 5:15,0,0,0,0
2003/2/9 5:30,0,0,0,0
2003/2/9 5:45,0,0,0,0
2003/2/9 6:00,0,0,0,0
2003/2/9 6:15,0,0,0,0
2003/2/9 6:30,0,0,0,0
2003/2/9 6:45,0,0,0,0
2003/2/9 7:00,0,0,0,0
2003/2/9 7:15,0,0,0,0
2003/2/9 7:30,0,0,0,0
2003/2/9 7:45,0,0,0,0
2003/2/9 8:00,0,0,0,0
2003/2/9 8:15,0.01286571,0,1.888686228,0
2003/2/9 8:30,0.01866579,0,2.740137972,0
2003/2/9 8:45,0.018662573,0,2.739665643,0
2003/2/9 9:00,0.0186615,0,2.7395082,0